Waarnemingen

Advertentie
Mijn weer
Berus, Duitsland (10704): temperatuur & dauwpunt: 14.06.2018 17:00:00 - 20.06.2018 17:00:00 (CEST)Berus, Duitsland (10704): temperatuur 5cm & temperatuur -5cm: 14.06.2018 17:00:00 - 20.06.2018 17:00:00 (CEST)Berus, Duitsland (10704): temperatuur -20cm & temperatuur -100cm: 14.06.2018 17:00:00 - 20.06.2018 17:00:00 (CEST)Berus, Duitsland (10704): windsnelheid & windstoten: 14.06.2018 17:00:00 - 20.06.2018 17:00:00 (CEST)Berus, Duitsland (10704): windrichting: 14.06.2018 17:00:00 - 20.06.2018 17:00:00 (CEST)Berus, Duitsland (10704): luchtdruk: 14.06.2018 17:00:00 - 20.06.2018 17:00:00 (CEST)Berus, Duitsland (10704): zicht: 14.06.2018 17:00:00 - 20.06.2018 17:00:00 (CEST)Berus, Duitsland (10704): Zonneschijnduur: 14.06.2018 17:00:00 - 20.06.2018 17:00:00 (CEST)Berus, Duitsland (10704): neerslag: 14.06.2018 17:00:00 - 20.06.2018 17:00:00 (CEST)
Datum & Tijd tt [°C] td [°C] tt 5cm [°C] tt -5cm [°C] tt -20cm [°C] tt -100cm [°C] ff [km/u] ff [kn] fx [km/u] fx [kn] dd ppp [hPa] vv [km] sd [min] rr [mm]
20.06.2018 17:00:00 27,0 15,3 30,8 35,5 24,2 17,7 10 5 15 8 W 1018,5 27 60 0,0
20.06.2018 16:00:00 27,4 16,0 34,4 34,9 23,3 17,7 5 3 14 7 NW 1018,7 36 60 0,0
20.06.2018 15:00:00 26,2 14,5 33,2 33,6 22,3 17,7 9 5 16 8 WZW 1019,3 27 60 0,0
20.06.2018 14:00:00 25,8 16,4 32,5 31,7 21,4 17,7 7 4 18 10 ZW 1020,0 22 60 0,0
20.06.2018 13:00:00 25,0 16,1 30,2 29,2 20,5 17,7 8 4 13 7 WZW 1020,6 24 60 0,0
20.06.2018 12:00:00 24,0 15,5 29,2 26,3 19,9 17,7 3 2 14 7 ZZO 1021,1 38 60 0,0
20.06.2018 11:00:00 22,5 14,5 27,5 23,4 19,5 17,7 6 3 14 8 O 1021,5 30 60 0,0
20.06.2018 10:00:00 21,3 16,0 23,7 20,6 19,3 17,7 8 5 16 9 NO 1021,8 18 60 0,0
20.06.2018 09:00:00 18,4 14,8 20,1 18,6 19,4 17,7 10 5 16 9 NO 1022,4 15 60 0,0
20.06.2018 08:00:00 17,1 14,4 16,2 17,3 19,6 17,7 14 7 18 10 NO 1022,6 16 59 0,0
20.06.2018 07:00:00 15,6 14,5 14,6 17,0 19,8 17,7 13 7 16 9 NNO 1022,8 17 44 0,0
20.06.2018 06:00:00 14,8 14,2 13,6 17,3 20,1 17,7 12 6 16 9 NNO 1023,1 8 0 0,0
20.06.2018 05:00:00 15,2 14,4 13,9 17,7 20,3 17,7 13 7 15 8 NNO 1023,2 16 0 0,0
20.06.2018 04:00:00 15,4 14,5 14,1 18,1 20,6 17,7 11 6 13 7 NNO 1023,5 13 0 0,0
20.06.2018 03:00:00 16,0 14,7 14,3 18,6 20,9 17,7 10 5 12 7 NNO 1023,7 14 0 0,0
20.06.2018 02:00:00 16,6 15,0 14,7 19,1 21,2 17,7 10 5 13 7 N 1023,9 22 0 0,0
20.06.2018 01:00:00 16,8 14,6 14,6 19,8 21,5 17,7 7 4 16 9 N 1024,1 26 0 0,0
20.06.2018 00:00:00 17,7 14,9 16,4 20,6 21,8 17,7 13 7 19 11 NNW 1024,0 26 0 0,0
19.06.2018 23:00:00 18,1 15,0 16,6 21,6 22,1 17,7 10 5 17 9 NW 1024,0 19 0 0,0
19.06.2018 22:00:00 18,5 14,8 16,9 22,9 22,2 17,7 9 5 14 8 WNW 1023,7 22 0 0,0
19.06.2018 21:00:00 18,9 14,9 18,0 24,4 22,2 17,7 7 4 12 7 NW 1023,8 24 8 0,0
19.06.2018 20:00:00 20,8 15,7 23,3 25,3 22,1 17,7 8 4 13 7 W 1023,7 31 22 0,0
19.06.2018 19:00:00 20,6 15,6 22,7 25,8 21,9 17,7 9 5 17 9 W 1023,9 27 3 0,0
19.06.2018 18:00:00 20,5 15,3 22,8 26,2 21,6 17,7 11 6 16 8 W 1024,2 26 0 0,0
19.06.2018 17:00:00 20,6 15,4 22,7 26,7 21,2 17,7 8 4 13 7 W 1024,5 22 0 0,0
19.06.2018 16:00:00 20,8 15,3 24,3 26,5 20,8 17,7 4 2 14 8 W 1024,4 22 0 0,0
19.06.2018 15:00:00 20,3 14,8 23,4 26,1 20,3 17,7 7 4 16 9 WNW 1024,8 22 8 0,0
19.06.2018 14:00:00 20,2 15,0 24,0 25,1 19,7 17,7 6 3 15 8 WZW 1025,0 33 0 0,0
19.06.2018 13:00:00 19,4 14,3 22,8 24,6 19,2 17,7 9 5 21 11 W 1025,1 25 31 0,0
19.06.2018 12:00:00 18,7 14,0 21,6 21,8 18,9 17,7 10 5 18 10 W 1025,1 31 17 0,0
19.06.2018 11:00:00 17,6 14,1 20,3 19,9 18,7 17,7 14 7 20 11 ZW 1025,4 17 2 0,0
19.06.2018 10:00:00 16,8 13,4 19,2 18,6 18,7 17,7 11 6 17 9 WZW 1025,6 15 5 0,0
19.06.2018 09:00:00 16,1 13,8 17,7 17,8 18,7 17,7 8 5 18 10 W 1025,6 14 30 0,0
19.06.2018 08:00:00 15,9 14,1 15,5 16,5 18,8 17,7 11 6 20 11 W 1025,2 16 60 0,0
19.06.2018 07:00:00 14,3 13,7 13,7 16,1 19,1 17,7 9 5 13 7 WZW 1024,8 13 45 0,0
19.06.2018 06:00:00 14,0 13,5 13,0 16,4 19,3 17,7 10 5 15 8 W 1024,8 14 0 0,0
19.06.2018 05:00:00 14,1 13,4 13,0 16,7 19,5 17,7 10 5 19 10 W 1024,4 18 0 0,0
19.06.2018 04:00:00 14,4 13,5 13,2 17,1 19,8 17,7 13 7 20 11 W 1024,3 18 0 0,0
19.06.2018 03:00:00 15,1 13,6 14,2 17,4 20,1 17,7 14 8 22 12 WZW 1023,9 28 0 0,0
19.06.2018 02:00:00 15,2 13,5 14,2 17,8 20,4 17,7 18 10 25 13 WZW 1023,6 27 0 0,0
19.06.2018 01:00:00 15,3 13,7 14,2 18,4 20,6 17,7 17 9 25 14 WZW 1023,5 24 0 0,0
19.06.2018 00:00:00 15,6 13,8 14,4 19,1 20,9 17,7 14 7 19 10 WZW 1023,6 30 0 0,0
18.06.2018 23:00:00 15,8 13,9 14,8 20,1 21,1 17,7 14 7 22 12 WZW 1023,5 28 0 0,0
18.06.2018 22:00:00 16,1 14,3 14,8 21,2 21,3 17,7 10 5 15 8 WZW 1023,1 29 7 0,0
18.06.2018 21:00:00 17,5 14,3 16,9 22,4 21,3 17,7 11 6 22 12 ZW 1022,7 34 41 0,0
18.06.2018 20:00:00 18,8 14,4 19,6 22,8 21,3 17,7 14 8 22 12 WZW 1022,3 28 6 0,0
18.06.2018 19:00:00 18,8 14,4 19,8 23,1 21,3 17,7 12 6 20 11 WZW 1022,4 31 0 0,0
18.06.2018 18:00:00 18,4 13,9 18,9 23,9 21,2 17,7 10 6 18 10 W 1022,6 35 0 0,0
18.06.2018 17:00:00 19,0 14,3 20,1 24,6 21,0 17,7 8 4 21 12 WZW 1022,5 37 0 0,0
18.06.2018 16:00:00 19,9 13,5 23,0 24,8 20,6 17,7 15 8 24 13 ZW 1022,4 34 1 0,0
18.06.2018 15:00:00 19,3 13,1 21,6 25,3 20,2 17,7 16 9 29 16 ZW 1022,4 38 1 0,0
18.06.2018 14:00:00 19,4 12,5 22,2 24,5 19,7 17,7 16 8 30 16 WZW 1022,3 34 13 0,0
18.06.2018 13:00:00 19,2 12,1 22,9 23,1 19,3 17,7 15 8 24 13 WZW 1022,7 32 5 0,0
18.06.2018 12:00:00 18,7 12,2 21,6 21,7 19,0 17,7 14 8 21 12 ZW 1022,7 31 0 0,0
18.06.2018 11:00:00 18,1 11,7 20,9 20,9 18,7 17,7 12 7 25 14 ZW 1022,6 34 10 0,0
18.06.2018 10:00:00 17,6 11,2 20,6 18,9 18,6 17,7 14 8 25 13 ZW 1022,7 24 38 0,0
18.06.2018 09:00:00 16,5 11,9 18,0 17,1 18,7 17,7 12 6 21 11 ZW 1022,5 28 42 0,0
18.06.2018 08:00:00 14,5 11,2 14,8 16,0 18,9 17,7 10 6 15 8 WZW 1022,5 19 34 0,0
18.06.2018 07:00:00 13,2 10,3 12,4 15,8 19,1 17,7 9 5 14 7 WZW 1022,5 29 44 0,0
18.06.2018 06:00:00 11,9 9,7 10,2 16,2 19,4 17,7 9 5 12 6 ZW 1022,5 27 0 0,0
18.06.2018 05:00:00 11,9 10,2 10,8 16,8 19,7 17,7 7 4 10 5 ZW 1022,3 24 0 0,0
18.06.2018 04:00:00 12,5 9,9 11,1 17,3 19,9 17,7 7 4 9 5 ZZW 1022,2 30 0 0,0
18.06.2018 03:00:00 13,4 9,9 12,7 17,6 20,2 17,7 6 3 7 4 ZW 1022,4 32 0 0,0
18.06.2018 02:00:00 13,3 10,1 12,3 18,0 20,4 17,7 5 3 7 4 ZW 1022,2 33 0 0,0
18.06.2018 01:00:00 13,9 9,5 13,3 18,5 20,7 17,7 5 3 13 7 WZW 1022,1 43 0 0,0
18.06.2018 00:00:00 14,4 9,3 14,0 19,1 21,0 17,7 9 5 16 9 W 1021,7 44 0 0,0
17.06.2018 23:00:00 14,7 9,8 14,5 19,9 21,2 17,7 10 5 19 10 W 1021,5 48 0 0,0
17.06.2018 22:00:00 15,0 10,3 14,9 20,9 21,4 17,7 9 5 22 12 W 1020,8 36 0 0,0
17.06.2018 21:00:00 15,8 10,4 15,8 22,0 21,5 17,7 10 5 22 12 W 1020,8 35 0 0,0
17.06.2018 20:00:00 16,8 10,9 17,5 23,0 21,5 17,7 13 7 26 14 W 1020,3 36 10 0,0
17.06.2018 19:00:00 17,9 10,9 20,2 23,7 21,4 17,7 14 8 33 18 W 1019,6 43 40 0,0
17.06.2018 18:00:00 17,5 11,3 19,0 23,7 21,4 17,7 19 11 31 17 W 1019,6 29 7 0,0
17.06.2018 17:00:00 17,3 11,6 18,7 24,0 21,2 17,7 13 7 28 15 W 1019,2 34 0 0,0
17.06.2018 16:00:00 17,5 11,3 18,9 24,8 20,9 17,6 16 9 31 17 WZW 1019,2 40 0 0,0
17.06.2018 15:00:00 18,5 11,7 21,5 25,1 20,5 17,6 18 10 36 20 W 1018,9 29 8 0,0
17.06.2018 14:00:00 19,6 12,0 23,5 24,2 20,2 17,6 19 10 32 18 W 1018,4 31 15 0,0
17.06.2018 13:00:00 19,2 12,0 21,5 23,9 19,8 17,6 16 9 36 20 WZW 1018,5 32 12 0,0
17.06.2018 12:00:00 20,1 12,5 24,2 23,1 19,4 17,6 19 10 30 16 ZW 1018,1 25 44 0,0
17.06.2018 11:00:00 18,8 11,7 21,2 21,4 19,1 17,6 15 8 27 14 WZW 1018,3 30 54 0,0
17.06.2018 10:00:00 18,6 12,9 21,4 19,4 19,0 17,6 13 7 18 10 ZW 1018,4 17 60 0,0
17.06.2018 09:00:00 16,7 12,7 17,9 17,7 19,1 17,6 4 2 8 5 ZZW 1018,4 25 22 0,0
17.06.2018 08:00:00 15,0 11,9 15,3 16,9 19,2 17,6 2 1 9 5 WNW 1018,6 22 0 0,0
17.06.2018 07:00:00 15,1 11,7 14,7 16,6 19,5 17,6 2 1 13 7 NW 1018,3 27 0 0,0
17.06.2018 06:00:00 14,8 10,9 13,4 16,7 19,8 17,6 9 5 13 7 NW 1017,9 27 0 0,0
17.06.2018 05:00:00 15,0 11,3 14,0 16,7 20,1 17,6 8 4 14 8 WNW 1017,8 27 0 0,0
17.06.2018 04:00:00 14,8 11,2 12,8 17,1 20,4 17,6 9 5 16 8 NW 1017,6 25 0 0,0
17.06.2018 03:00:00 15,2 11,3 13,1 17,6 20,8 17,6 10 5 16 8 WNW 1017,4 26 0 0,0
17.06.2018 02:00:00 14,7 11,4 11,5 18,3 21,2 17,6 5 3 13 7 WZW 1017,2 25 0 0,0
17.06.2018 01:00:00 15,8 11,1 14,0 19,0 21,5 17,6 9 5 18 10 WNW 1017,2 33 0 0,0
17.06.2018 00:00:00 16,2 11,3 14,7 20,0 21,9 17,6 11 6 20 11 WNW 1017,2 35 0 0,0
16.06.2018 23:00:00 16,9 12,5 15,7 21,1 22,2 17,6 11 6 26 14 WNW 1016,7 30 0 0,0
16.06.2018 22:00:00 17,8 13,4 16,8 22,4 22,4 17,6 16 9 26 14 WNW 1015,8 34 4 0,0
16.06.2018 21:00:00 19,1 14,4 18,5 23,9 22,5 17,6 17 9 30 16 W 1015,2 13 57 0,0
16.06.2018 20:00:00 20,8 14,3 22,5 25,2 22,5 17,6 17 9 36 19 WZW 1014,7 17 39 0,0
16.06.2018 19:00:00 20,4 15,3 21,0 26,5 22,3 17,6 17 9 36 19 W 1014,5 12 11 0,0
16.06.2018 18:00:00 22,6 13,2 24,2 27,4 21,9 17,6 13 7 22 12 ZW 1014,0 46 47 0,0
16.06.2018 17:00:00 22,9 13,0 25,0 26,8 21,6 17,6 9 5 19 10 WZW 1014,2 31 28 0,0
16.06.2018 16:00:00 22,6 11,0 25,4 27,0 21,2 17,6 6 3 14 8 W 1014,5 31 19 0,0
16.06.2018 15:00:00 22,6 11,4 26,3 26,3 20,7 17,6 6 4 15 8 WZW 1014,8 51 35 0,0
16.06.2018 14:00:00 22,2 12,7 24,6 26,1 20,1 17,6 8 4 16 9 WZW 1015,2 50 32 0,0
16.06.2018 13:00:00 22,3 10,5 26,8 25,2 19,6 17,6 6 3 14 7 Z 1015,2 42 59 0,0
16.06.2018 12:00:00 21,9 13,4 25,4 23,4 19,2 17,6 5 3 14 8 Z 1015,5 33 59 0,0
16.06.2018 11:00:00 20,2 13,3 22,5 21,7 18,9 17,6 4 2 10 6 ZZO 1015,8 25 53 0,0
16.06.2018 10:00:00 19,7 15,4 22,5 19,5 18,7 17,6 4 2 8 5 ZO 1015,9 13 38 0,0
16.06.2018 09:00:00 18,0 15,2 18,8 18,2 18,7 17,7 2 1 9 5 W 1016,2 11 7 0,0
16.06.2018 08:00:00 16,4 13,6 16,2 17,3 18,8 17,7 3 2 5 3 NO 1016,0 8 4 0,0
16.06.2018 07:00:00 16,0 13,9 15,2 16,9 19,0 17,7 3 2 8 4 NNO 1016,2 8 0 0,0
16.06.2018 06:00:00 14,8 13,9 13,9 16,9 19,2 17,7 6 3 8 5 NNO 1016,3 4,9 0 0,0
16.06.2018 05:00:00 14,9 13,6 13,9 17,0 19,5 17,7 6 3 8 4 NO 1016,2 6 0 0,0
16.06.2018 04:00:00 15,6 13,7 12,7 17,4 19,7 17,7 0 0 4 2 N 1016,3 12 0 0,0
16.06.2018 03:00:00 16,0 13,8 13,1 17,8 20,0 17,7 0 0 5 3 N 1016,5 16 0 0,0
16.06.2018 02:00:00 16,2 13,6 13,3 18,3 20,3 17,7 4 2 7 4 WZW 1016,9 17 0 0,0
16.06.2018 01:00:00 17,0 13,5 13,3 18,9 20,6 17,7 5 3 8 4 ZZO 1016,6 20 0 0,0
16.06.2018 00:00:00 17,3 13,5 14,4 19,7 20,8 17,7 6 4 8 4 Z 1016,4 26 0 0,0
15.06.2018 23:00:00 16,9 13,4 15,1 20,5 21,0 17,7 5 3 9 5 Z 1016,7 28 0 0,0
15.06.2018 22:00:00 17,9 13,9 16,4 21,6 21,1 17,7 6 4 9 5 ZZO 1016,4 26 0 0,0
15.06.2018 21:00:00 18,9 14,4 18,6 22,5 21,1 17,7 5 3 10 6 ZZW 1016,4 30 14 0,0
15.06.2018 20:00:00 19,5 14,5 20,1 23,3 21,1 17,7 7 4 10 5 ZZW 1016,2 33 0 0,0
15.06.2018 19:00:00 19,9 14,2 20,9 23,9 20,9 17,7 6 3 11 6 ZZW 1016,2 31 0 0,0
15.06.2018 18:00:00 20,0 13,3 21,4 24,5 20,7 17,7 6 4 10 6 Z 1016,2 35 0 0,0
15.06.2018 17:00:00 20,4 12,9 23,0 24,6 20,4 17,7 4 2 9 5 W 1016,2 38 1 0,0
15.06.2018 16:00:00 19,9 12,2 22,3 24,8 20,0 17,7 6 4 13 7 ZZW 1016,6 40 9 0,0
15.06.2018 15:00:00 19,9 12,4 24,1 24,7 19,5 17,7 4 2 15 8 WZW 1016,7 38 22 0,0
15.06.2018 14:00:00 19,2 11,7 24,3 23,2 19,1 17,8 3 2 11 6 WZW 1017,0 36 2 0,0
15.06.2018 13:00:00 18,9 13,5 22,8 22,1 18,7 17,8 5 3 13 7 ZW 1017,2 30 3 0,0
15.06.2018 12:00:00 17,8 13,4 21,6 20,8 18,4 17,8 3 2 11 6 WNW 1017,3 21 0 0,0
15.06.2018 11:00:00 16,9 12,9 18,9 20,1 18,2 17,8 4 2 11 6 W 1017,4 21 0 0,0
15.06.2018 10:00:00 16,5 13,6 18,3 18,8 18,1 17,8 6 4 13 7 ZW 1017,5 15 21 0,0
15.06.2018 09:00:00 14,7 12,9 15,3 17,3 18,1 17,8 4 2 8 5 ZW 1017,7 8 1 0,0
15.06.2018 08:00:00 14,0 13,6 14,5 16,6 18,2 17,8 3 2 6 3 ZW 1017,6 3,5 0 0,0
15.06.2018 07:00:00 13,6 13,3 13,8 16,5 18,4 17,8 0 0 5 3 N 1017,2 2,2 0 0,0
15.06.2018 06:00:00 13,2 13,1 13,2 16,5 18,5 17,8 0 0 5 3 N 1017,0 0,4 0 0,0
15.06.2018 05:00:00 13,2 12,7 13,0 16,7 18,7 17,9 0 0 0 0 N 1017,1 3,9 0 0,0
15.06.2018 04:00:00 13,3 12,3 13,3 16,8 18,9 17,9 0 0 4 2 N 1017,2 10 0 0,0
15.06.2018 03:00:00 13,1 12,3 13,1 17,0 19,1 17,9 3 2 11 6 NO 1017,3 8 0 0,0
15.06.2018 02:00:00 13,4 11,0 12,8 17,2 19,3 17,9 8 4 11 6 WNW 1017,8 27 0 0,0
15.06.2018 01:00:00 13,4 11,5 13,0 17,5 19,6 17,9 6 3 15 8 W 1018,2 16 0 0,0
15.06.2018 00:00:00 13,4 12,7 13,2 17,9 19,9 17,9 9 5 18 10 NW 1018,3 6 0 0,0
14.06.2018 23:00:00 13,5 12,7 13,1 18,5 20,2 17,9 6 3 18 10 WNW 1018,1 8 0 0,4
14.06.2018 22:00:00 13,6 12,8 13,2 19,4 20,4 17,9 13 7 25 13 NW 1017,5 11 0 0,6
14.06.2018 21:00:00 14,0 12,4 13,6 20,7 20,5 18,0 14 8 37 20 NW 1017,1 12 0 0,2
14.06.2018 20:00:00 16,5 10,6 16,4 22,0 20,6 18,0 8 4 14 7 W 1016,0 38 0 0,0
14.06.2018 19:00:00 17,6 11,3 18,3 23,1 20,4 18,0 6 4 18 10 W 1015,7 40 0 0,0
14.06.2018 18:00:00 19,0 9,9 21,0 24,0 20,2 18,0 11 6 18 10 WZW 1015,4 34 13 0,0
14.06.2018 17:00:00 18,6 10,8 20,6 24,5 19,8 18,0 9 5 18 10 WZW 1015,5 34 3 0,0

tt = temperatuur
td = dauwpunt
tt 5cm = temperatuur 5cm
tt -5cm = temperatuur -5cm
tt -20cm = temperatuur -20cm
tt -100cm = temperatuur -100cm
ff = windsnelheid
fx = windstoten
dd = windrichting
ppp = luchtdruk
vv = zicht
sd = Zonneschijnduur
rr = neerslag

Weerstations in de omgeving